Hourly Weather Almada

Today, 6 March, Saturday

Time Temperature Precipitation Wind Pressure Humidity
00:00 +11°C° 0 mm 3 mps 760 mmHg 82%
01:00 +11°C° 0 mm 3 mps 760 mmHg 82%
02:00 +11°C° 0 mm 3 mps 760 mmHg 82%
03:00 +10°C° 0 mm 3 mps 760 mmHg 82%
04:00 +10°C° 0 mm 3 mps 760 mmHg 83%
05:00 +10°C° 0 mm 2 mps 760 mmHg 82%
06:00 +12°C° 0 mm 2 mps 761 mmHg 78%
07:00 +11°C° 0 mm 3 mps 761 mmHg 75%
08:00 +12°C° 0 mm 3 mps 761 mmHg 71%
09:00 +14°C° 0 mm 3 mps 762 mmHg 66%
10:00 +16°C° 0 mm 3 mps 762 mmHg 62%
11:00 +18°C° 0 mm 3 mps 762 mmHg 57%
12:00 +19°C° 0 mm 2 mps 761 mmHg 55%
13:00 +20°C° 0 mm 2 mps 761 mmHg 53%
14:00 +20°C° 0 mm 2 mps 761 mmHg 51%
15:00 +19°C° 0 mm 3 mps 761 mmHg 56%
16:00 +19°C° 0 mm 3 mps 761 mmHg 61%
17:00 +18°C° 0 mm 4 mps 761 mmHg 66%
18:00 +15°C° 0 mm 4 mps 761 mmHg 67%
19:00 +14°C° 0 mm 3 mps 761 mmHg 68%
20:00 +13°C° 0 mm 3 mps 762 mmHg 70%
21:00 +12°C° 0 mm 3 mps 762 mmHg 70%
22:00 +12°C° 0 mm 3 mps 762 mmHg 70%
23:00 +11°C° 0 mm 3 mps 762 mmHg 70%

Tomorrow, 7 March, Sunday

Time Temperature Precipitation Wind Pressure Humidity
00:00 +12°C° 0 mm 2 mps 762 mmHg 72%
01:00 +12°C° 0 mm 2 mps 761 mmHg 74%
02:00 +10°C° 0 mm 2 mps 761 mmHg 77%
03:00 +10°C° 0 mm 2 mps 761 mmHg 80%
04:00 +10°C° 0 mm 2 mps 761 mmHg 84%
05:00 +10°C° 0 mm 3 mps 761 mmHg 88%
06:00 +12°C° 0 mm 2 mps 761 mmHg 86%
07:00 +13°C° 0 mm 2 mps 761 mmHg 85%
08:00 +14°C° 0 mm 2 mps 762 mmHg 83%
09:00 +14°C° 0 mm 3 mps 762 mmHg 77%
10:00 +16°C° 0 mm 3 mps 762 mmHg 72%
11:00 +18°C° 0 mm 3 mps 762 mmHg 66%
12:00 +18°C° 0 mm 4 mps 761 mmHg 65%
13:00 +18°C° 0 mm 4 mps 761 mmHg 64%
14:00 +17°C° 0 mm 5 mps 760 mmHg 63%
15:00 +16°C° 0 mm 5 mps 760 mmHg 68%
16:00 +14°C° 0 mm 5 mps 760 mmHg 73%
17:00 +13°C° 0 mm 6 mps 760 mmHg 78%
18:00 +11°C° 0 mm 6 mps 761 mmHg 81%
19:00 +10°C° 0 mm 6 mps 761 mmHg 83%
20:00 +9°C° 0 mm 6 mps 761 mmHg 86%
21:00 +8°C° 0 mm 6 mps 761 mmHg 87%
22:00 +8°C° 0 mm 6 mps 761 mmHg 87%
23:00 +8°C° 0 mm 6 mps 761 mmHg 88%

Day after tomorrow, 8 March, Monday

Time Temperature Precipitation Wind Pressure Humidity
00:00 +8°C° 0 mm 5 mps 761 mmHg 87%
01:00 +8°C° 0 mm 5 mps 760 mmHg 87%
02:00 +8°C° 0 mm 5 mps 760 mmHg 86%
03:00 +8°C° 0 mm 6 mps 760 mmHg 87%
04:00 +7°C° 0 mm 6 mps 760 mmHg 87%
05:00 +7°C° 0 mm 6 mps 760 mmHg 87%
06:00 +8°C° 0 mm 6 mps 760 mmHg 82%
07:00 +9°C° 0 mm 7 mps 760 mmHg 76%
08:00 +10°C° 0 mm 8 mps 761 mmHg 71%
09:00 +10°C° 0 mm 8 mps 761 mmHg 68%
10:00 +11°C° 0 mm 8 mps 761 mmHg 65%
11:00 +12°C° 0 mm 8 mps 761 mmHg 62%
12:00 +12°C° 0 mm 8 mps 761 mmHg 62%
13:00 +12°C° 0 mm 9 mps 760 mmHg 62%
14:00 +12°C° 0 mm 9 mps 760 mmHg 63%
15:00 +11°C° 0 mm 9 mps 760 mmHg 66%
16:00 +10°C° 0 mm 8 mps 760 mmHg 69%
17:00 +10°C° 0 mm 8 mps 760 mmHg 72%
18:00 +9°C° 0 mm 7 mps 760 mmHg 76%
19:00 +9°C° 0 mm 7 mps 761 mmHg 79%
20:00 +8°C° 0 mm 7 mps 761 mmHg 83%
21:00 +8°C° 0 mm 6 mps 761 mmHg 82%
22:00 +8°C° 0 mm 6 mps 761 mmHg 81%
23:00 +8°C° 0 mm 5 mps 761 mmHg 81%

9 March, Tuesday

Time Temperature Precipitation Wind Pressure Humidity
00:00 +8°C° 0 mm 5 mps 761 mmHg 81%
01:00 +8°C° 0 mm 5 mps 761 mmHg 82%
02:00 +8°C° 0 mm 5 mps 761 mmHg 83%
03:00 +7°C° 0 mm 5 mps 761 mmHg 83%
04:00 +7°C° 0 mm 4 mps 761 mmHg 83%
05:00 +7°C° 0 mm 4 mps 761 mmHg 83%
06:00 +7°C° 0 mm 4 mps 761 mmHg 76%
07:00 +8°C° 0 mm 4 mps 762 mmHg 70%
08:00 +10°C° 0 mm 4 mps 762 mmHg 63%
09:00 +12°C° 0 mm 4 mps 762 mmHg 57%
10:00 +14°C° 0 mm 4 mps 763 mmHg 51%
11:00 +15°C° 0 mm 4 mps 763 mmHg 46%
12:00 +16°C° 0 mm 5 mps 762 mmHg 46%
13:00 +16°C° 0 mm 5 mps 762 mmHg 45%
14:00 +16°C° 0 mm 6 mps 762 mmHg 45%
15:00 +15°C° 0 mm 6 mps 762 mmHg 52%
16:00 +14°C° 0 mm 6 mps 762 mmHg 59%
17:00 +11°C° 0 mm 6 mps 762 mmHg 67%
18:00 +10°C° 0 mm 5 mps 763 mmHg 71%
19:00 +9°C° 0 mm 5 mps 764 mmHg 75%
20:00 +8°C° 0 mm 4 mps 764 mmHg 79%
21:00 +8°C° 0 mm 4 mps 764 mmHg 79%
22:00 +8°C° 0 mm 4 mps 764 mmHg 80%
23:00 +8°C° 0 mm 3 mps 765 mmHg 81%

10 March, Wednesday

Time Temperature Precipitation Wind Pressure Humidity
00:00 +8°C° 0 mm 3 mps 765 mmHg 82%
01:00 +8°C° 0 mm 3 mps 765 mmHg 83%
02:00 +8°C° 0 mm 3 mps 765 mmHg 83%
03:00 +8°C° 0 mm 3 mps 765 mmHg 85%
04:00 +8°C° 0 mm 3 mps 765 mmHg 87%
05:00 +8°C° 0 mm 2 mps 765 mmHg 88%
06:00 +9°C° 0 mm 2 mps 765 mmHg 84%
07:00 +10°C° 0 mm 2 mps 766 mmHg 80%
08:00 +12°C° 0 mm 2 mps 766 mmHg 76%
09:00 +14°C° 0 mm 2 mps 766 mmHg 67%
10:00 +16°C° 0 mm 2 mps 767 mmHg 59%
11:00 +18°C° 0 mm 2 mps 767 mmHg 51%
12:00 +18°C° 0 mm 3 mps 766 mmHg 51%
13:00 +19°C° 0 mm 3 mps 766 mmHg 51%
14:00 +19°C° 0 mm 3 mps 766 mmHg 50%
15:00 +18°C° 0 mm 4 mps 766 mmHg 57%
16:00 +17°C° 0 mm 4 mps 766 mmHg 63%
17:00 +14°C° 0 mm 4 mps 766 mmHg 70%
18:00 +13°C° 0 mm 4 mps 766 mmHg 76%
19:00 +12°C° 0 mm 3 mps 767 mmHg 81%
20:00 +11°C° 0 mm 3 mps 767 mmHg 87%
21:00 +11°C° 0 mm 3 mps 767 mmHg 88%
22:00 +12°C° 0 mm 2 mps 767 mmHg 89%
23:00 +10°C° 0 mm 2 mps 767 mmHg 90%

11 March, Thursday

Time Temperature Precipitation Wind Pressure Humidity
00:00 +10°C° 0 mm 2 mps 767 mmHg 91%
01:00 +10°C° 0 mm 2 mps 767 mmHg 92%
02:00 +10°C° 0 mm 2 mps 766 mmHg 93%
03:00 +11°C° 0 mm 1 mps 766 mmHg 93%
04:00 +11°C° 0 mm 1 mps 766 mmHg 94%
05:00 +10°C° 0 mm 1 mps 766 mmHg 95%
06:00 +12°C° 0 mm 1 mps 767 mmHg 92%
07:00 +12°C° 0 mm 0 mps 767 mmHg 88%
08:00 +13°C° 0 mm 0 mps 767 mmHg 85%
09:00 +15°C° 0 mm 0 mps 767 mmHg 79%
10:00 +18°C° 0 mm 1 mps 767 mmHg 73%
11:00 +19°C° 0 mm 1 mps 767 mmHg 67%
12:00 +20°C° 0 mm 1 mps 766 mmHg 67%
13:00 +19°C° 0 mm 2 mps 766 mmHg 66%
14:00 +19°C° 0 mm 2 mps 765 mmHg 66%
15:00 +18°C° 0 mm 3 mps 765 mmHg 72%
16:00 +17°C° 0 mm 3 mps 765 mmHg 77%
17:00 +16°C° 0 mm 3 mps 765 mmHg 83%
18:00 +14°C° 0 mm 3 mps 765 mmHg 85%
19:00 +13°C° 0 mm 3 mps 765 mmHg 87%
20:00 +13°C° 0 mm 2 mps 765 mmHg 90%
21:00 +13°C° 0 mm 2 mps 765 mmHg 90%
22:00 +13°C° 0 mm 2 mps 765 mmHg 90%
23:00 +13°C° 0 mm 1 mps 765 mmHg 91%
Show more